Location: La Silve
(44.2414°N, 5.8889°E)
Time: 04:31:16
(UTC+00:00)

BREEZE-M DEB (TANK) - Pass Details

Date: 01 December 2020
Orbit: 433 x 13849 km, 45.9° (Epoch: 24 January)

Event Time Altitude Azimuth Distance (km) Brightness Sun altitude
Rises 17:36:19 0° 226° (SW) 3,766 7.6 -16.9°
Reaches altitude 10° 17:39:50 10° 216° (SW) 2,086 6.0 -17.6°
Maximum altitude 17:43:15 28° 153° (SSE) 900 3.3 -18.1°
Enters shadow 17:43:35 28° 140° (SE) 899 3.1 -18.2°
